Wind_Speed
6 6 4 2 3 6 6 5 5 4 5 8 7 6 5 4 4 6 8 5 5 0 5 6 6 6 7 7 7 10 10 9 7 5 4 2 3 7 14 9 12 20 19 19 19 23 24 23 22 19 19 21 24 24 25 26 26 27 27 27 27 27 27 25 24 23 21 20 19 19 18 18 18 17 18 18 17 17 17 17 16 15 15 15 15 15 15 14 16 17 16 16 16 16 16 15 14
5 6 5 3 5 7 3 2 6 6 7 9 7 7 4 3 5 8 6 3 3 4 6 7 7 7 8 8 9 11 9 7 6 6 4 1 3 9 13 11 16 20 20 19 20 22 21 23 24 21 20 23 25 25 26 26 27 27 27 27 27 27 27 24 22 21 20 19 19 19 19 19 18 17 17 17 17 18 17 17 16 16 15 15 15 15 14 14 16 17 17 17 17 16 16 15 15
5 6 5 4 6 5 3 3 7 8 9 9 8 6 3 5 7 5 2 4 5 7 7 6 7 6 7 9 8 7 7 6 4 6 4 2 1 10 13 13 18 20 20 19 19 21 21 24 26 23 22 23 24 24 26 28 27 28 28 27 26 25 26 24 20 19 19 18 18 19 20 20 18 17 16 16 17 18 17 16 16 16 15 15 16 16 16 17 18 18 18 18 17 16 15 15 15
6 5 5 6 5 5 5 5 7 8 9 9 8 5 4 7 5 1 2 4 5 6 6 6 6 2 5 9 6 4 7 7 2 4 3 2 2 11 16 15 20 19 19 19 19 21 20 25 28 25 22 21 22 22 23 27 27 27 27 27 25 25 24 22 19 17 18 18 19 20 20 20 18 18 17 16 17 17 17 16 16 16 16 16 17 18 19 19 19 19 19 19 19 17 16 16 16
5 5 5 7 5 3 4 5 6 8 9 8 8 5 4 5 2 2 3 4 5 6 5 6 6 2 5 8 5 4 5 6 3 5 4 4 3 13 17 17 20 19 19 19 19 20 20 26 30 28 25 21 21 22 22 24 25 26 26 26 26 25 22 20 19 18 18 19 19 19 19 20 19 18 17 16 16 16 16 16 16 16 16 17 19 20 21 19 18 18 18 19 19 19 19 18 17
6 5 5 7 4 2 5 6 7 9 10 9 8 5 2 3 2 4 5 6 5 5 6 6 7 6 7 6 4 7 6 6 3 3 3 2 9 15 18 19 18 18 18 19 19 19 21 26 30 29 28 25 22 22 22 22 22 22 23 24 24 23 21 20 19 19 19 18 20 20 20 20 19 18 17 17 17 16 17 17 17 16 17 17 20 22 19 17 17 17 16 16 16 17 17 16 15
6 6 5 6 3 2 7 8 9 9 6 5 7 7 3 3 3 5 7 7 4 4 5 5 6 8 8 6 5 6 5 7 5 2 2 5 12 16 18 19 18 18 19 20 19 18 22 26 28 28 28 27 24 22 21 21 20 21 22 21 20 20 20 20 20 21 19 18 20 21 20 19 18 18 18 17 16 16 16 16 17 17 17 18 21 19 16 15 15 15 15 15 15 15 14 13 12
6 5 2 5 5 4 8 9 9 9 2 1 6 7 6 7 6 7 8 8 6 4 5 7 6 7 9 8 7 2 4 4 3 1 1 7 14 17 18 18 19 19 19 20 19 19 23 26 27 26 26 27 26 24 22 21 20 20 21 20 19 18 19 20 21 22 20 19 21 21 20 18 18 18 17 17 16 16 17 16 17 18 18 19 19 17 15 15 14 14 15 15 15 13 12 11 10
7 5 2 5 7 5 8 8 8 8 5 4 6 6 6 8 8 8 10 10 9 8 8 8 5 6 10 10 9 6 2 4 3 1 3 7 14 17 17 18 20 21 21 21 20 22 24 27 28 28 28 27 27 26 24 22 21 20 19 20 20 20 20 21 21 22 21 21 21 21 20 18 17 17 16 16 15 16 17 17 17 19 19 18 17 15 14 15 15 14 14 14 14 12 11 10 9
7 5 4 5 7 7 7 8 7 6 6 7 7 7 7 8 8 9 10 11 10 10 10 7 6 11 12 11 10 7 3 6 3 1 4 9 14 16 16 17 19 21 22 21 22 24 23 27 29 28 28 28 28 27 26 24 23 23 20 20 21 22 22 21 21 22 22 22 22 21 21 19 18 18 17 17 16 16 17 18 18 19 20 18 17 16 15 15 15 14 13 14 13 12 10 9 8
5 4 4 5 7 8 7 7 7 5 6 7 7 8 8 8 8 9 11 12 10 10 9 5 7 10 9 10 6 1 5 5 3 0 4 8 12 14 13 15 17 19 21 22 24 24 23 27 28 28 28 27 28 27 26 25 24 24 23 23 23 22 22 23 23 22 22 22 22 21 21 20 19 19 19 18 17 16 16 17 18 19 19 19 18 17 16 15 14 14 13 13 12 11 10 9 7
6 5 4 6 7 7 6 6 6 5 6 7 8 8 6 6 8 9 11 10 8 8 8 4 6 9 8 9 4 3 3 3 2 1 4 8 11 13 13 15 18 20 22 23 25 24 24 26 26 27 28 28 29 28 27 25 23 23 23 24 24 23 23 24 24 24 23 21 22 22 20 20 19 18 18 17 16 16 15 16 17 18 19 19 18 17 16 15 14 14 13 11 10 10 9 8 7
6 5 5 6 6 5 5 5 5 5 6 7 7 6 3 6 9 9 9 7 8 9 6 6 7 8 9 9 5 2 1 3 1 2 4 7 9 12 15 16 19 22 23 24 25 25 25 26 25 25 26 27 28 28 29 28 24 23 23 23 24 24 24 24 24 24 23 23 23 21 19 19 19 17 17 16 15 16 16 16 16 16 17 17 17 16 15 14 14 14 12 11 9 9 8 8 7
6 4 5 6 4 5 6 6 6 5 6 5 3 3 3 6 8 6 6 7 8 6 6 7 7 8 7 7 6 2 2 2 1 3 6 8 9 12 15 17 21 22 23 23 24 25 24 24 24 25 26 25 25 24 27 29 27 24 23 24 24 24 24 24 24 24 24 24 23 21 19 19 18 17 16 15 15 15 16 16 16 16 16 16 16 15 15 14 14 13 12 11 9 8 8 7 7
5 3 5 6 4 5 7 6 6 5 4 1 1 1 5 7 5 5 5 7 6 4 6 3 3 7 7 7 7 4 3 1 2 4 7 8 9 11 13 15 18 20 21 21 21 22 23 22 23 25 25 25 24 22 22 26 28 25 23 23 23 24 24 24 24 25 24 23 22 20 18 18 18 17 16 15 15 14 14 15 16 16 16 16 16 15 14 14 13 13 12 11 10 9 8 7 6
5 4 5 7 6 6 5 5 5 5 2 2 2 1 5 5 4 6 4 5 8 3 4 3 2 6 8 8 8 6 3 1 2 5 7 8 9 9 12 13 15 16 15 19 22 23 24 23 24 25 24 25 24 23 22 23 26 25 22 21 21 21 21 22 23 23 21 20 21 19 18 18 17 17 17 16 15 15 14 14 15 15 15 15 15 14 14 13 13 12 12 11 10 9 8 7 6
5 5 6 6 6 6 4 5 4 2 1 2 2 3 5 3 3 4 3 5 9 6 4 3 3 4 6 6 6 5 3 1 2 3 2 1 2 4 3 3 9 8 7 14 22 21 26 27 25 24 23 24 23 23 24 23 24 25 22 20 19 19 19 20 21 20 19 19 19 18 17 16 16 17 17 16 16 16 14 14 14 14 13 14 14 14 14 13 12 12 11 11 10 9 8 7 7
6 6 7 6 6 5 3 5 2 2 2 1 3 2 4 4 1 1 3 8 8 8 6 3 2 2 2 4 4 3 2 1 1 3 3 6 10 10 11 11 3 5 14 7 9 4 10 18 20 21 19 22 23 21 22 24 26 25 23 21 19 19 19 19 19 18 17 18 18 18 17 16 16 16 16 15 16 16 15 14 14 13 13 12 13 14 13 13 12 12 11 11 10 9 8 7 7
7 5 6 6 5 2 1 3 2 1 2 1 2 2 4 4 3 2 4 8 5 8 7 4 4 2 3 3 2 1 1 2 4 4 4 2 2 1 5 10 8 8 16 12 0 5 7 4 4 14 16 19 22 18 18 24 26 26 24 21 20 19 19 19 18 18 17 18 19 18 17 16 15 14 14 15 14 14 14 14 14 14 13 12 12 12 13 13 13 12 12 11 11 10 9 8 8
6 5 6 5 2 3 2 3 3 3 3 3 2 1 5 5 3 3 5 8 6 8 5 3 6 2 3 2 1 1 2 3 5 6 7 6 6 1 5 7 7 7 12 14 8 0 6 8 7 7 11 16 22 17 15 22 23 24 24 22 21 19 20 19 19 19 18 18 19 18 17 16 15 13 14 15 14 13 14 14 14 13 13 12 12 12 13 13 13 13 13 12 11 11 10 9 8
4 5 5 3 3 3 5 5 4 4 4 5 4 2 5 3 3 5 6 7 6 5 4 6 10 7 2 3 2 2 3 4 6 7 7 5 2 5 5 4 5 7 9 10 11 11 6 5 11 11 8 11 18 17 14 20 21 22 23 21 20 19 19 19 18 18 18 19 18 18 16 15 15 14 14 15 15 13 13 14 14 14 14 14 14 14 14 14 14 13 13 13 12 11 10 9 8
4 6 4 3 3 4 3 4 4 4 5 5 5 5 4 1 4 5 5 7 6 5 7 8 10 8 2 2 3 3 3 4 5 5 6 5 3 5 4 2 2 6 9 9 9 13 13 4 10 14 8 3 5 12 11 15 18 19 22 21 19 17 17 17 17 17 17 17 18 17 15 15 15 15 15 16 15 14 14 13 14 14 14 14 14 14 14 14 14 13 13 13 12 11 9 9 8
5 5 4 2 5 5 2 3 3 4 7 7 6 4 3 4 5 3 5 8 8 7 7 9 9 6 2 2 3 3 2 4 5 4 6 7 6 6 5 4 4 6 10 9 5 7 9 4 4 9 11 5 3 6 9 8 11 13 17 20 19 17 16 15 15 15 15 16 16 16 14 15 15 15 15 16 16 15 14 14 14 14 14 14 14 14 13 13 13 13 13 12 11 10 10 9 8
6 3 5 4 4 5 4 3 3 5 7 7 5 4 6 8 4 2 6 9 8 7 6 7 7 3 3 3 3 2 5 3 4 5 6 8 7 7 5 5 6 9 12 11 5 5 9 6 2 2 12 9 2 8 9 6 7 9 12 16 17 18 17 15 14 12 12 12 14 15 14 15 15 15 16 16 16 15 15 14 13 14 14 14 13 13 13 13 13 12 12 12 11 11 10 10 8
7 3 5 4 3 6 5 3 6 6 7 6 6 8 9 6 4 5 10 8 4 5 5 4 3 2 4 4 4 8 6 4 4 4 6 8 9 9 8 9 10 12 15 13 10 10 12 10 7 6 8 7 7 10 6 7 4 3 6 11 12 15 16 15 13 11 11 11 13 14 14 15 15 16 16 16 16 15 15 14 14 14 14 13 13 13 12 12 12 12 12 12 12 11 10 10 9
6 3 3 4 4 5 5 5 8 6 6 6 7 12 9 1 3 8 10 4 3 4 3 2 2 3 4 5 7 7 5 2 4 5 4 7 9 10 10 10 11 13 15 14 12 13 12 13 14 11 7 3 7 9 1 2 2 11 9 2 3 6 9 10 11 12 13 13 14 15 15 16 16 16 16 16 16 15 15 15 15 14 14 14 13 13 13 12 12 11 12 12 12 12 11 11 11
3 3 2 5 4 4 5 6 7 6 6 7 9 11 5 3 4 7 2 2 4 4 2 1 2 2 4 7 7 4 4 5 5 4 4 4 8 10 10 10 11 12 13 12 12 13 13 14 18 20 19 14 7 6 4 4 4 14 21 16 12 8 3 3 7 8 11 14 16 18 19 20 18 14 15 15 15 14 14 14 15 15 15 15 14 14 13 12 12 12 12 12 11 11 11 11 11
1 3 4 6 6 5 6 7 6 6 4 4 8 9 3 3 7 5 3 3 3 4 1 1 1 2 6 8 7 5 5 5 5 3 3 5 7 9 11 12 10 11 12 10 10 12 14 15 19 26 27 25 18 8 4 6 7 14 23 22 18 10 5 6 9 10 12 15 17 18 19 20 19 15 14 14 14 14 14 14 14 14 15 15 14 14 13 13 12 12 12 12 11 10 10 11 12
2 4 6 6 7 6 6 5 3 4 2 2 7 8 7 8 6 1 4 3 0 2 2 2 2 3 6 7 6 5 6 6 6 5 5 7 7 7 9 10 9 10 11 10 9 9 11 12 16 25 27 25 23 18 13 12 13 14 17 20 20 14 6 6 10 14 16 15 14 14 14 16 18 18 15 14 14 14 15 15 15 15 15 14 14 13 13 13 12 12 12 12 11 11 11 11 11
4 6 7 4 7 7 6 3 3 4 1 2 7 6 6 8 3 4 4 2 2 4 3 2 3 4 5 6 6 6 7 6 5 6 9 9 8 9 8 8 7 10 12 11 10 8 8 8 9 16 24 23 18 18 17 13 11 10 11 14 18 14 7 6 12 16 16 13 12 13 14 15 17 19 17 13 14 14 14 16 17 16 15 14 14 13 13 13 12 12 12 12 12 12 12 12 12
5 5 5 5 6 6 8 3 5 5 3 4 8 6 2 6 5 5 3 2 1 3 1 1 2 5 5 6 8 8 8 6 5 8 11 11 11 11 10 8 8 12 14 12 12 10 9 9 8 9 17 21 17 15 17 14 10 10 8 5 3 2 4 9 14 16 15 15 14 14 15 15 16 18 18 17 16 15 15 15 16 17 15 15 14 14 14 15 14 13 13 12 12 12 12 12 13
5 5 5 6 5 5 8 4 2 1 3 6 8 6 1 4 6 5 3 2 0 2 2 1 2 5 6 6 8 9 9 8 7 8 9 10 12 12 11 10 10 14 16 14 14 14 13 13 13 11 12 17 17 14 15 16 16 14 11 9 10 11 12 15 16 16 16 17 17 17 17 17 18 18 17 19 18 16 15 15 14 15 16 16 15 15 16 16 17 16 15 14 12 12 13 13 13
6 6 5 5 6 4 6 7 3 1 1 6 7 6 3 3 5 4 2 1 1 2 2 2 2 5 6 6 7 9 10 9 8 8 7 8 11 13 12 11 13 15 15 14 15 16 17 17 17 16 13 13 14 12 9 10 12 12 12 11 11 11 12 13 12 13 13 14 15 16 18 19 19 18 17 19 19 18 18 18 16 14 15 16 15 17 18 18 18 18 18 17 15 14 13 14 14
6 6 5 4 6 3 3 7 6 2 4 6 6 6 6 1 3 4 3 1 2 3 2 3 3 5 6 6 8 9 10 9 8 8 8 8 12 14 13 13 14 16 16 16 18 17 18 19 19 18 16 14 13 12 9 6 6 6 6 6 6 6 7 7 8 8 8 9 9 11 15 17 18 18 18 18 19 19 19 20 20 17 15 15 15 17 20 20 19 19 19 19 18 17 16 16 15
6 6 5 4 6 6 4 2 4 2 6 7 7 7 8 4 4 4 4 1 3 3 2 2 4 6 6 7 8 9 10 10 8 8 9 9 11 13 13 13 15 16 17 18 18 16 17 19 19 18 17 15 14 13 11 8 6 5 3 2 2 3 5 6 6 6 6 7 8 10 12 14 16 17 19 19 19 19 18 18 21 22 19 17 16 17 19 20 20 19 19 19 18 18 18 17 16
3 4 5 4 5 6 5 2 3 1 6 9 9 7 6 6 5 6 4 1 3 3 3 3 4 6 7 7 8 9 11 10 10 10 10 10 10 12 12 13 15 16 16 16 15 15 15 17 17 17 16 14 13 12 11 10 8 6 5 3 2 1 2 4 4 4 5 6 8 10 11 12 13 13 15 18 20 22 20 18 20 24 23 20 18 19 21 21 21 21 19 18 18 19 19 17 15
3 4 5 5 5 5 4 2 2 0 6 8 8 7 6 7 6 5 5 3 5 5 5 5 5 6 6 8 9 10 11 10 10 10 10 11 11 12 12 13 14 14 14 14 14 14 15 14 15 15 14 12 11 10 10 9 8 7 6 5 4 3 3 3 4 4 4 5 6 8 10 12 12 11 12 15 19 21 22 21 21 24 24 23 23 23 24 23 23 23 20 19 20 20 20 18 16
6 6 6 5 7 6 3 2 1 1 6 7 6 7 9 9 7 5 5 6 7 7 7 7 7 6 7 9 11 11 11 10 10 11 10 11 11 11 12 12 13 13 13 13 14 14 14 14 14 13 12 12 11 10 10 9 8 7 5 3 3 2 2 2 3 4 5 5 6 7 9 11 11 12 12 13 16 17 19 21 22 23 23 24 26 25 25 25 25 24 21 20 20 21 21 20 18
7 6 6 6 5 4 4 5 4 3 5 6 5 7 9 8 7 5 6 7 7 6 7 7 7 8 8 10 11 11 12 11 11 11 10 11 11 11 11 11 12 13 12 12 13 13 13 13 13 12 13 13 13 12 11 10 9 8 5 3 3 1 1 2 3 5 6 7 7 7 7 8 10 12 12 12 14 14 17 19 21 22 22 24 27 27 26 25 24 22 21 20 19 20 20 20 20
8 7 6 6 3 2 6 5 4 4 5 7 5 6 8 7 7 8 7 7 6 6 7 7 7 8 8 9 10 11 13 13 12 11 10 11 11 11 11 11 11 11 11 11 11 12 12 12 12 13 13 13 15 15 13 12 10 9 7 6 5 3 3 4 4 4 6 8 9 9 7 8 8 10 12 12 13 13 15 17 18 20 22 23 25 25 26 26 24 21 20 21 19 18 19 19 21
9 9 7 7 4 5 7 2 1 5 7 8 8 7 8 8 9 8 7 7 8 8 9 9 8 8 9 9 10 11 12 12 12 11 10 11 11 11 11 11 10 10 11 11 10 11 12 12 12 12 13 13 15 16 15 14 12 11 10 8 7 6 5 5 5 6 7 9 9 10 11 11 10 10 11 12 13 13 14 14 15 18 20 20 21 24 25 26 26 22 20 22 22 19 18 18 19
8 10 10 10 8 7 8 6 4 6 7 7 6 7 6 6 8 8 7 8 9 10 10 11 11 10 10 10 10 11 11 11 11 11 10 11 11 11 11 11 10 11 11 11 11 12 12 12 11 11 11 12 13 15 15 14 13 12 11 9 9 9 8 7 8 9 10 10 9 10 13 14 13 11 11 11 12 13 13 13 14 16 18 18 20 23 25 26 27 26 24 23 25 25 22 20 19
7 6 9 10 10 8 9 9 6 7 5 4 3 7 7 3 7 8 7 7 9 10 10 11 11 11 11 11 11 11 11 11 11 11 11 11 11 11 11 11 11 12 12 12 12 11 11 11 11 10 10 11 11 12 12 11 10 10 9 8 7 7 8 9 10 10 11 11 11 11 12 14 14 13 13 12 13 13 14 14 14 14 16 18 19 21 24 27 27 26 26 23 24 26 25 23 22
5 2 4 8 9 10 10 9 8 8 7 3 6 9 8 7 7 5 6 7 9 10 11 12 12 12 13 13 12 13 13 12 11 11 11 11 12 11 11 12 13 13 13 12 12 11 10 10 9 10 9 10 9 9 10 9 9 8 7 6 5 5 6 9 10 11 11 11 12 11 11 12 12 13 13 14 13 14 14 14 14 13 14 16 18 20 23 25 25 25 26 25 23 26 28 26 22
1 5 1 6 7 8 9 9 8 8 9 8 8 8 7 8 6 4 6 9 10 10 12 12 13 13 14 14 14 14 13 13 12 11 12 12 12 12 12 14 14 14 13 11 11 10 10 9 8 9 8 8 8 8 8 8 7 6 6 6 5 5 6 7 9 10 11 12 12 12 11 11 11 11 12 13 13 14 14 14 15 15 15 15 16 19 22 23 24 25 26 26 26 27 29 25 19
2 4 2 3 5 7 7 8 8 8 8 9 10 8 7 7 6 4 5 7 9 9 10 11 12 13 14 14 14 15 13 12 12 12 12 13 13 13 13 15 14 12 11 10 10 9 8 7 7 7 7 7 6 6 6 6 6 6 5 5 5 5 6 7 7 8 9 11 12 13 12 11 11 11 11 12 13 14 15 15 15 15 16 15 15 17 19 22 24 26 25 25 26 27 28 26 21
2 4 5 5 6 6 6 6 7 7 9 10 11 9 7 7 6 3 3 3 5 5 6 7 10 12 14 14 14 15 14 12 12 12 13 14 14 13 13 14 13 11 10 9 9 8 7 7 6 6 6 5 5 5 6 6 5 5 5 5 5 6 6 6 7 8 8 9 11 12 12 12 12 12 12 12 12 13 14 15 15 16 16 16 16 16 18 19 21 25 26 25 27 28 29 29 28
5 6 7 6 6 5 6 7 6 7 9 7 5 5 7 8 5 3 1 1 3 5 5 4 7 11 13 13 14 15 14 13 13 12 13 14 13 13 13 13 12 10 9 8 8 8 7 6 6 6 5 4 4 4 5 6 5 5 6 6 6 6 7 7 8 8 8 9 9 10 11 12 13 13 12 13 13 13 14 15 14 15 16 16 16 16 18 19 18 20 23 25 26 27 28 30 31
7 7 7 7 6 5 6 7 6 8 8 3 1 2 6 8 8 7 5 3 3 4 4 4 4 7 11 14 14 14 14 14 13 12 12 12 12 13 13 12 11 10 9 9 8 8 7 6 5 5 4 3 2 2 3 4 5 6 6 6 7 7 8 8 9 9 9 9 9 10 11 11 12 13 13 14 14 13 14 14 15 15 15 16 17 17 18 19 19 18 18 21 26 27 28 29 30
8 8 7 7 7 7 7 7 6 8 7 2 2 2 6 8 7 4 3 3 3 3 4 4 3 4 6 11 14 13 14 15 13 13 12 12 12 13 13 12 11 10 10 9 9 8 7 6 5 4 4 3 2 1 2 3 4 5 6 7 7 8 8 9 9 9 9 10 10 11 11 11 12 13 13 14 14 15 15 15 16 17 17 18 19 20 20 19 20 20 19 20 23 26 27 28 28
9 8 7 8 7 7 7 6 6 7 6 2 4 3 6 5 1 2 1 1 1 2 4 4 3 4 4 7 11 13 14 14 13 13 13 12 13 13 12 12 11 11 11 10 9 8 7 6 5 4 3 2 1 0 1 3 4 5 6 7 8 8 9 10 10 10 10 11 12 12 12 13 13 13 14 14 15 16 16 17 17 17 18 18 19 20 20 20 20 21 21 20 20 22 24 27 30
5 6 8 8 7 7 6 5 5 6 7 6 5 5 5 4 2 3 4 4 4 4 4 5 6 6 6 6 9 11 12 13 13 12 12 12 13 13 13 13 12 11 11 11 10 9 7 6 5 4 3 2 1 1 2 3 4 5 6 8 9 9 10 11 11 11 11 12 13 13 14 14 14 14 14 15 16 17 18 19 19 18 18 19 19 19 20 21 21 21 21 21 21 22 23 25 29
2 5 8 5 4 7 7 5 2 3 8 8 7 7 7 7 5 3 3 5 5 6 6 6 5 5 7 8 8 10 12 13 13 13 12 13 14 14 14 13 13 12 12 12 11 10 8 6 5 4 3 2 2 2 3 4 5 6 6 7 9 10 11 12 12 12 13 13 14 14 15 15 16 16 16 16 17 19 19 19 20 20 20 20 20 20 20 21 22 23 23 23 22 23 24 25 26
3 4 4 1 2 6 6 6 4 5 9 8 8 10 9 8 4 3 4 5 4 4 3 4 4 5 8 8 9 10 11 12 13 13 13 13 15 15 15 14 14 14 14 13 13 11 9 7 6 5 4 3 3 4 5 5 6 6 7 8 9 10 11 12 13 13 13 14 15 15 15 16 17 17 17 18 19 20 20 20 21 21 21 21 21 20 21 21 22 23 23 24 24 23 25 25 24
5 4 3 2 4 6 5 6 7 8 9 7 9 12 9 7 6 3 3 4 3 3 2 2 4 5 5 7 8 10 11 11 12 13 12 12 14 17 17 16 16 16 15 14 13 12 10 8 7 5 5 5 5 5 5 6 6 7 8 9 10 10 11 12 12 13 14 15 15 15 16 16 17 17 18 19 19 20 20 21 21 21 21 21 22 21 21 21 22 23 24 24 24 24 25 25 23
3 4 4 5 4 5 5 5 6 7 8 7 9 10 7 5 5 3 3 3 3 3 2 3 3 2 3 4 5 8 9 10 11 12 12 12 15 17 17 17 17 17 17 15 14 13 12 9 8 7 7 6 6 6 6 6 7 8 9 10 10 11 12 12 12 13 14 15 15 15 16 16 17 17 17 18 19 20 21 21 22 22 22 22 22 22 22 21 22 23 24 24 24 25 26 26 25
2 4 5 6 5 5 5 6 7 7 8 7 8 9 7 3 1 2 4 3 2 4 4 4 4 4 4 4 4 5 7 10 11 12 12 12 14 16 16 16 16 16 17 17 15 14 13 10 9 9 8 7 6 6 6 6 7 8 9 10 11 12 12 12 12 14 14 14 14 15 16 16 17 17 17 18 19 19 20 22 22 22 22 22 22 22 22 22 22 23 24 25 25 26 27 27 26
5 5 5 6 6 6 7 9 9 8 9 9 8 9 7 2 1 2 4 2 1 3 4 4 4 5 5 5 5 5 6 8 10 11 12 11 13 16 15 15 15 15 16 17 16 15 13 11 10 9 9 7 6 6 6 6 7 7 9 11 12 12 12 12 14 15 14 13 14 15 16 16 17 17 17 17 18 18 20 21 22 23 23 23 22 22 22 22 23 23 24 25 26 26 27 28 27
Wind_Direction
162 178 197 226 264 271 256 252 256 229 250 259 252 253 233 227 261 261 244 247 260 317 1 320 310 300 281 294 289 293 296 277 286 293 317 34 78 155 163 146 146 148 149 151 151 163 167 169 168 165 166 169 171 171 172 172 173 172 172 173 172 169 166 166 164 163 159 156 154 152 149 147 148 146 146 146 145 146 146 143 139 138 137 137 135 134 133 132 131 130 129 125 124 124 121 116 113
167 174 185 217 251 263 255 249 265 250 247 254 250 257 255 196 228 250 258 290 312 348 331 307 303 291 280 279 269 271 270 264 285 310 322 355 88 137 158 144 147 148 148 151 151 159 162 168 169 167 167 168 170 170 171 171 172 171 172 172 169 167 167 166 164 162 159 157 155 152 149 149 149 147 148 149 148 146 146 143 140 140 139 139 137 135 132 131 131 130 129 126 126 126 123 118 113
174 174 185 221 235 251 262 234 257 260 254 258 257 252 249 234 241 251 306 339 340 337 311 306 302 296 289 265 261 270 273 281 271 280 257 207 161 142 153 146 148 148 148 151 153 158 161 169 172 169 167 168 170 168 170 171 171 171 170 169 166 165 165 165 164 162 160 157 154 152 150 150 149 148 152 151 149 147 146 144 142 141 140 139 136 134 131 129 129 127 126 127 128 128 125 119 115
170 194 214 234 229 228 242 232 249 262 257 262 264 240 228 249 253 269 328 339 332 317 302 316 300 290 302 282 297 288 262 275 274 291 262 76 340 151 151 150 148 149 151 153 155 158 163 173 173 170 168 165 167 166 167 169 169 169 170 170 168 166 166 165 164 163 160 156 153 152 151 152 151 152 154 153 150 147 147 145 143 141 140 139 136 134 132 130 128 127 125 126 128 129 127 122 119
175 204 221 243 249 240 240 244 252 255 257 266 272 244 218 251 273 300 305 315 308 303 309 316 292 306 295 276 295 281 265 288 10 345 311 53 115 153 148 152 151 152 154 155 157 158 167 176 174 172 170 165 165 165 165 165 166 167 169 170 170 170 169 167 165 163 159 155 154 152 153 152 151 154 156 154 151 149 148 146 143 141 142 141 139 138 135 133 131 130 127 124 127 130 130 127 124
183 190 203 236 268 310 250 245 249 249 257 263 267 261 213 241 283 297 293 292 289 289 300 305 299 312 285 265 276 274 304 320 330 328 304 98 150 153 149 154 154 155 156 157 159 159 169 177 173 173 172 169 166 165 167 164 165 166 166 169 172 173 170 167 162 160 158 157 156 153 153 152 152 156 157 155 154 153 150 146 145 144 146 145 143 142 139 137 137 136 131 129 131 133 133 132 128
196 193 188 219 225 238 247 248 251 254 255 249 261 274 265 268 299 294 285 284 274 265 280 292 303 301 280 285 287 270 333 330 311 339 9 130 154 155 153 156 156 156 156 159 161 160 170 175 170 171 172 171 169 165 164 163 164 167 166 168 170 169 167 164 160 160 159 158 157 153 152 154 156 157 158 158 158 157 152 149 149 148 149 149 146 145 144 143 142 141 138 138 139 138 135 135 135
213 223 196 228 226 203 245 251 251 259 237 192 263 275 286 290 295 289 285 284 281 278 275 284 291 281 278 284 277 265 52 354 323 354 168 151 157 160 159 159 159 158 157 161 162 160 169 173 168 169 169 170 172 168 164 163 164 165 167 166 164 166 166 162 160 161 159 159 158 155 156 158 159 160 162 163 162 160 157 155 154 153 151 150 149 148 148 146 145 145 144 145 144 143 138 137 138
207 227 219 238 246 224 243 250 244 253 243 247 254 251 269 275 278 282 280 277 281 285 282 296 301 279 283 279 273 277 61 43 2 236 207 171 165 166 165 166 163 159 159 162 162 160 167 173 172 173 171 169 170 169 168 167 166 166 166 165 164 166 166 162 161 163 160 159 160 161 163 162 163 165 166 166 167 166 162 160 159 157 154 154 154 151 151 149 150 149 148 146 145 144 138 135 133
202 221 238 235 247 243 241 245 240 243 248 254 251 251 261 263 271 275 274 277 283 286 291 307 289 271 278 281 278 283 12 36 2 231 193 182 176 173 170 170 166 161 161 162 162 159 166 175 175 174 171 168 167 167 167 167 168 170 170 168 166 167 167 162 162 164 161 161 163 166 166 163 162 162 162 163 164 165 164 163 162 160 158 159 157 156 156 155 154 153 151 147 146 143 137 129 123
211 203 246 244 236 244 245 244 238 235 244 246 249 256 260 263 268 270 272 274 275 281 288 297 285 283 282 280 275 57 36 15 347 346 180 181 179 178 171 169 170 167 164 164 163 159 164 171 173 173 170 168 166 166 165 165 167 170 172 172 171 172 170 166 165 165 165 165 166 166 162 158 158 159 160 161 161 159 160 163 166 165 163 162 162 163 162 160 157 155 154 151 149 144 137 128 122
231 195 214 240 237 244 251 256 250 247 247 239 247 247 243 256 259 265 268 270 280 281 284 299 320 318 297 281 287 93 65 21 11 84 174 179 178 181 177 175 176 174 170 166 164 161 161 164 169 172 171 170 169 168 166 163 165 168 170 173 173 173 171 168 169 168 167 166 166 163 160 162 164 168 169 168 168 162 159 161 165 167 168 168 168 168 166 164 161 160 159 158 154 148 142 133 127
237 218 212 237 249 254 254 263 257 258 257 242 246 243 221 255 258 267 273 282 281 270 296 338 334 314 286 284 289 225 102 34 359 172 184 191 182 180 182 182 181 179 174 169 165 162 160 162 166 169 171 173 172 171 169 165 166 169 170 172 172 172 171 170 171 170 168 166 166 164 166 170 171 174 174 173 174 169 167 164 161 164 167 172 173 172 172 170 168 167 167 166 163 157 148 137 128
230 230 236 243 244 253 254 254 250 249 258 245 232 245 240 252 263 279 284 282 266 276 340 351 330 304 289 289 277 257 57 20 251 196 196 198 186 181 184 184 184 181 174 170 166 162 161 163 166 169 173 173 171 170 170 169 169 171 174 174 172 173 173 172 172 171 169 167 167 167 171 174 175 177 176 177 177 173 174 170 165 163 164 170 175 177 178 178 176 176 175 175 172 167 159 144 131
230 225 243 250 239 240 237 241 259 260 257 237 115 273 259 246 251 264 267 277 278 336 335 315 323 310 322 314 303 11 38 308 222 213 207 195 185 184 187 185 185 179 171 165 162 164 164 167 171 171 174 172 170 170 172 171 170 171 174 174 174 175 176 173 173 172 170 170 168 169 175 178 180 180 180 182 180 179 179 176 173 169 167 170 173 176 180 182 182 182 182 181 179 175 168 156 143
230 232 230 244 242 233 214 218 248 256 251 83 91 147 251 232 214 258 280 293 287 306 293 299 350 314 322 319 324 8 13 294 222 223 211 192 184 185 190 189 186 177 167 162 163 168 170 172 172 173 176 174 173 173 172 169 167 168 171 174 176 175 175 175 174 172 171 172 171 172 179 182 184 186 187 188 185 185 184 183 180 175 174 174 172 174 178 181 182 184 184 186 185 180 175 169 162
216 229 229 235 232 228 203 208 224 271 347 91 132 177 240 232 183 247 277 265 270 279 276 304 331 310 315 326 343 354 347 309 252 249 250 245 34 11 321 237 199 172 116 158 169 169 176 177 173 174 178 177 178 175 168 165 164 164 167 172 176 176 176 178 175 173 173 176 176 176 182 186 189 193 193 192 192 191 189 189 184 179 180 176 173 174 176 179 182 184 186 189 187 184 181 177 180
203 215 226 231 225 227 205 218 223 348 314 123 144 179 252 271 264 240 258 244 243 264 258 238 257 276 331 9 17 349 347 336 29 37 10 357 9 7 354 357 353 77 60 112 180 166 179 179 175 178 178 179 183 178 167 164 165 162 164 170 176 179 179 180 178 176 177 178 181 182 185 189 192 196 196 197 199 195 192 194 189 184 182 177 176 177 178 180 183 187 188 192 193 192 187 183 190
210 214 225 232 223 187 121 227 220 256 287 313 174 186 256 274 302 336 285 271 263 272 256 222 243 182 127 65 54 19 47 83 87 109 140 178 242 310 353 13 27 60 58 60 78 314 331 351 184 186 181 181 184 185 174 165 166 163 162 170 175 179 180 180 180 178 180 182 185 186 188 193 194 197 199 201 202 196 194 196 192 189 185 180 182 181 181 184 186 188 192 196 199 200 194 192 194
214 222 227 220 182 142 170 232 229 248 293 289 251 186 255 263 281 281 288 290 284 275 277 298 304 3 109 99 84 82 89 106 114 131 137 162 199 87 27 23 34 59 62 61 83 189 310 327 316 240 196 188 186 190 184 168 164 163 161 169 174 177 180 181 182 182 184 185 186 188 189 193 196 198 200 203 205 199 194 192 192 194 191 190 192 190 189 192 193 192 194 198 203 205 203 202 200
199 216 241 126 139 187 187 221 239 256 283 283 288 269 253 256 257 266 284 287 270 271 352 345 323 344 36 138 161 167 125 126 127 132 133 148 151 74 55 25 36 65 77 79 83 68 35 323 319 299 231 191 191 195 191 178 168 161 159 165 173 177 180 182 185 186 187 188 189 190 191 193 194 197 199 202 205 203 196 192 195 199 198 199 202 201 197 197 198 197 196 198 203 208 208 207 206
201 211 276 83 174 231 174 218 252 268 281 271 263 258 267 283 242 255 277 285 294 329 360 331 314 330 313 175 184 178 147 130 122 128 128 125 101 108 123 116 101 85 81 85 95 83 71 60 340 316 251 179 205 199 187 183 175 164 160 161 167 175 181 184 188 191 191 191 192 192 194 194 194 196 197 199 202 204 203 199 200 202 203 204 206 207 204 200 199 200 201 202 205 209 212 211 206
226 198 234 206 217 253 210 227 255 269 267 250 250 274 297 274 254 263 284 285 301 331 338 312 311 312 264 180 204 196 157 129 117 117 111 120 128 130 149 151 117 85 87 86 105 110 85 117 335 314 226 199 350 189 178 187 186 176 167 163 164 171 181 188 192 195 197 195 194 195 197 198 196 197 196 197 200 203 206 205 204 204 206 207 207 209 209 204 200 201 203 204 207 209 210 210 205
248 194 183 221 238 247 248 245 254 263 262 256 273 291 265 264 280 332 283 284 306 329 329 311 311 277 197 171 202 57 29 24 83 105 106 110 116 116 119 112 92 81 97 96 86 104 82 101 154 220 195 189 144 172 189 209 209 202 184 173 171 177 184 191 196 201 205 203 201 199 201 202 200 200 198 198 200 203 206 206 207 207 208 209 207 209 211 206 204 204 203 202 204 207 209 210 207
238 220 166 216 236 240 256 261 255 255 259 262 265 266 258 267 321 300 279 289 328 330 330 320 300 227 179 152 101 66 49 359 26 63 91 97 99 104 98 91 94 86 93 98 94 105 96 93 114 141 165 177 160 161 204 235 244 289 215 190 179 184 191 193 197 204 211 212 212 209 206 206 204 203 200 199 200 203 206 206 209 209 209 211 208 210 212 208 207 206 204 203 202 203 206 210 211
209 214 174 220 228 243 266 257 251 249 251 258 251 257 256 224 309 268 261 292 358 321 329 341 287 209 171 114 86 91 123 115 36 8 36 89 96 95 98 97 95 88 92 101 107 113 112 99 89 89 92 101 160 151 91 259 346 10 5 263 213 214 207 202 209 218 219 217 218 216 216 218 213 206 202 199 200 202 204 205 208 209 208 210 210 211 211 208 208 207 207 207 204 202 203 205 210
173 225 230 243 249 248 265 257 252 255 249 248 251 259 253 115 256 252 206 41 342 303 293 356 284 194 137 104 101 114 117 89 60 10 357 73 90 93 109 110 97 98 102 105 114 118 118 108 88 79 72 66 104 147 69 46 42 30 27 13 344 324 309 270 246 243 238 232 231 225 221 226 226 217 207 202 201 202 204 206 208 209 209 208 209 210 210 209 209 209 209 210 208 205 202 201 205
195 255 241 227 241 234 240 251 245 247 241 232 249 254 230 177 230 250 31 23 324 301 272 137 215 153 114 116 131 128 103 88 86 83 29 46 69 94 112 110 100 102 106 110 121 117 117 119 102 88 75 68 73 82 78 58 48 46 37 20 359 345 350 330 295 285 268 250 246 239 229 230 234 231 219 208 206 206 205 207 208 209 209 208 209 209 209 208 209 211 210 210 211 208 203 201 204
240 248 244 206 214 216 208 233 225 231 235 173 234 231 199 194 213 273 11 355 336 252 241 167 174 141 122 129 138 131 116 111 122 124 86 61 62 82 98 104 109 105 102 110 117 110 114 121 110 98 85 77 77 73 69 60 54 57 43 23 13 4 338 305 282 274 268 260 262 264 254 248 248 245 235 219 214 215 212 212 211 211 211 210 209 207 208 209 210 211 210 209 209 209 208 204 204
232 228 250 216 208 197 170 188 192 201 181 166 227 236 182 174 164 60 31 351 196 210 221 193 164 128 127 125 115 115 112 110 127 117 99 92 84 79 79 87 107 111 105 100 97 96 105 111 111 107 101 97 99 94 85 69 62 71 55 27 18 12 345 289 262 256 260 264 272 274 266 263 263 260 257 245 231 227 223 220 217 215 213 212 212 208 208 209 209 210 209 209 209 211 213 208 208
226 214 232 236 225 166 138 161 204 193 143 177 232 260 168 138 122 87 61 14 233 210 188 208 159 125 129 121 114 111 106 108 111 102 101 103 96 89 84 81 89 98 97 89 87 91 94 98 96 107 114 117 127 129 122 123 125 121 101 66 18 355 280 268 261 258 262 265 267 268 263 262 265 264 265 264 254 245 238 232 225 221 216 214 216 214 214 214 212 211 209 210 210 213 215 212 212
218 218 208 219 231 152 138 158 224 233 128 182 232 262 243 128 119 100 79 48 97 201 146 168 144 132 139 129 124 117 114 121 113 98 97 99 97 95 93 93 94 94 96 92 91 91 86 88 90 90 106 119 133 143 144 151 158 166 170 185 210 222 239 250 256 259 261 262 262 264 265 262 261 261 261 263 264 258 253 249 239 231 224 218 219 219 221 222 219 217 214 213 214 216 217 214 214
202 229 218 196 219 181 149 158 160 341 163 195 228 266 286 122 118 105 89 66 151 201 155 145 142 135 143 135 128 123 120 120 108 95 94 101 100 99 103 103 99 98 98 95 90 87 83 83 85 81 79 92 110 120 128 144 153 165 176 189 206 219 237 247 257 263 266 269 267 263 263 261 263 267 266 261 261 262 262 265 260 249 237 228 223 221 224 225 222 220 219 219 220 222 223 219 217
188 221 230 198 225 240 167 154 148 204 241 220 219 250 272 244 135 138 103 62 223 220 196 167 156 143 144 137 130 127 123 116 107 98 92 92 93 97 104 100 95 93 89 88 88 84 83 83 82 81 78 79 87 94 95 102 115 127 147 172 193 212 237 258 273 280 286 288 281 269 263 265 269 273 272 267 265 267 266 265 264 261 250 240 234 230 230 229 225 222 221 222 223 226 229 227 222
197 205 221 205 219 240 244 169 120 201 246 240 227 235 248 243 202 168 112 77 239 225 202 185 160 148 143 139 135 129 123 117 114 110 100 92 88 91 95 92 89 88 85 85 88 86 83 84 83 82 81 80 83 88 90 90 94 91 94 129 180 229 256 273 280 286 289 286 282 273 267 266 270 271 269 269 270 270 265 259 260 261 256 247 243 241 239 235 231 227 224 223 224 227 231 232 228
224 214 240 236 216 227 245 283 55 302 261 248 242 248 242 235 216 172 137 160 228 218 191 195 173 150 144 140 136 130 124 120 119 116 109 100 93 90 90 89 87 86 87 88 87 83 80 79 79 76 73 74 78 81 86 87 86 80 69 59 37 341 293 284 284 288 286 285 282 277 273 267 267 270 267 267 267 263 260 254 254 258 256 251 247 245 243 239 233 227 223 222 224 227 230 230 229
240 233 238 245 246 246 235 221 93 207 268 253 243 256 250 242 231 172 156 196 217 217 204 204 189 159 152 142 134 129 122 121 122 116 108 103 99 97 94 93 93 91 91 89 85 80 76 76 75 70 65 64 64 62 64 66 63 62 60 53 36 1 350 331 315 310 302 298 293 287 280 272 270 271 266 266 266 261 257 253 252 257 258 257 256 251 246 242 236 229 223 220 220 223 226 226 225
228 232 231 231 237 247 246 227 189 194 258 253 226 245 245 234 234 187 177 216 223 223 216 208 188 160 153 144 136 133 126 126 128 121 117 115 110 107 102 100 99 94 90 87 85 83 80 80 79 74 71 69 67 61 54 50 42 39 42 50 46 15 340 328 311 303 299 294 297 297 290 282 278 275 269 265 267 263 257 255 254 256 258 260 260 256 250 244 238 234 228 222 220 221 224 226 222
227 230 240 245 230 248 253 225 216 207 247 255 223 244 250 224 221 213 203 220 221 218 217 205 186 170 160 151 144 141 138 139 138 132 131 128 120 114 107 101 97 94 94 92 91 92 88 87 86 84 81 77 74 71 63 55 42 31 23 19 24 20 269 301 303 291 289 289 294 299 298 295 289 284 279 271 269 265 260 259 256 254 254 255 256 254 253 248 240 235 231 227 225 224 225 224 218
231 233 239 246 229 269 255 198 170 202 244 276 276 263 260 227 213 216 206 208 198 193 203 196 187 181 167 158 155 151 149 147 145 143 138 133 125 117 112 107 106 105 104 104 101 100 95 94 94 89 85 80 76 73 67 60 50 38 28 18 10 359 329 322 314 298 299 303 303 300 296 299 298 293 289 282 276 269 264 263 257 254 254 252 252 252 255 256 248 238 231 230 232 231 225 223 217
224 232 247 260 253 251 264 261 177 235 231 250 267 268 259 234 224 218 182 182 192 189 194 192 186 179 163 158 160 158 157 153 150 148 142 140 134 127 126 124 123 120 116 114 111 105 103 101 98 92 87 81 75 71 68 62 53 41 30 19 9 1 353 347 340 330 325 321 314 305 296 295 294 291 289 286 282 273 268 264 257 259 260 253 250 251 252 256 256 251 239 230 233 236 230 229 224
226 221 233 260 269 255 262 266 252 259 237 210 235 267 265 224 224 228 180 178 197 190 193 196 185 177 167 164 165 164 161 157 154 151 148 146 143 139 139 138 133 127 122 120 115 110 109 105 102 98 90 83 75 69 66 61 55 46 35 23 10 358 352 351 348 336 330 327 321 313 306 301 294 286 284 284 284 279 274 267 260 263 265 258 250 250 252 253 254 254 247 235 232 237 237 237 235
250 215 214 240 262 260 261 258 238 263 268 161 194 271 283 242 229 232 202 202 207 191 197 201 188 184 182 175 171 169 165 163 160 157 155 151 150 152 150 146 139 131 128 124 120 117 113 107 103 99 91 84 76 68 63 60 56 49 42 32 13 359 345 339 338 331 326 322 318 318 314 309 300 290 284 281 280 281 279 275 268 263 265 263 256 253 255 254 250 249 251 247 240 239 236 235 238
264 92 196 229 247 250 251 253 243 261 275 236 230 254 272 272 257 230 201 227 229 206 208 205 194 193 190 182 176 175 172 167 164 163 161 159 160 160 153 148 143 137 133 128 124 120 112 105 100 95 89 83 76 68 64 60 55 48 43 33 13 358 336 326 328 327 324 319 314 314 313 311 307 298 289 284 280 280 280 280 277 272 267 266 261 257 256 254 251 251 254 255 252 248 241 234 235
290 74 237 240 246 255 254 255 252 263 273 264 248 238 250 267 258 191 192 239 244 224 221 213 202 197 191 186 180 178 176 172 170 168 166 167 167 164 155 150 144 135 129 126 126 120 111 105 97 91 86 78 72 68 61 55 53 46 37 25 7 352 333 321 319 319 320 319 315 312 310 308 308 304 297 290 285 282 282 282 281 278 273 268 263 261 260 256 254 255 255 253 251 250 248 244 240
71 105 216 229 233 251 252 257 264 268 266 266 260 241 245 272 265 208 204 246 252 234 228 221 206 196 190 187 182 179 177 176 175 171 170 172 168 165 160 149 137 126 125 128 126 122 116 112 104 95 87 77 68 62 56 49 45 39 27 12 355 343 335 323 314 312 313 315 315 314 313 309 307 306 303 299 294 290 287 284 281 279 277 274 268 264 263 259 256 255 254 252 250 250 252 253 251
121 178 214 212 219 238 245 254 268 270 259 260 262 251 253 276 276 250 218 251 273 259 239 224 208 196 190 186 183 181 180 179 178 173 171 170 165 167 163 143 130 126 133 137 132 129 127 123 118 105 93 84 68 54 45 38 32 25 14 358 342 334 329 321 316 313 309 309 310 311 313 311 309 306 304 303 302 301 297 290 283 277 277 278 274 268 264 262 258 256 255 253 253 254 253 253 251
210 222 231 228 225 231 245 245 243 255 261 262 258 245 252 262 263 266 261 227 256 268 261 237 211 198 190 186 185 184 184 183 181 177 172 167 166 171 160 138 133 141 149 150 145 144 142 138 136 122 108 97 74 53 38 29 21 13 0 347 337 329 322 318 314 311 310 307 303 304 307 308 308 306 304 304 303 305 306 299 290 282 276 276 277 276 271 267 263 259 254 251 252 251 251 252 250
224 232 236 237 235 231 241 243 232 246 260 259 144 226 250 258 263 269 280 281 258 260 269 270 246 212 195 190 188 185 185 185 184 182 175 171 173 171 157 144 149 160 165 163 161 160 156 153 152 141 127 117 91 61 32 17 8 1 351 340 334 327 320 315 311 309 310 309 305 302 302 300 301 302 301 302 302 304 306 301 296 288 281 277 279 281 278 274 269 262 253 250 252 250 249 251 248
219 231 232 232 238 240 244 247 244 252 260 223 141 254 260 258 269 278 301 329 319 283 268 271 289 268 220 198 191 188 187 186 186 185 181 179 178 169 158 156 163 172 175 173 173 173 170 164 166 162 147 141 134 91 18 360 353 347 341 336 330 325 321 316 311 310 308 308 307 304 300 297 294 293 293 296 299 301 301 299 294 289 284 280 278 278 277 274 270 265 258 255 255 252 248 248 247
224 233 239 239 245 249 253 256 258 267 275 227 168 221 264 265 338 73 80 10 302 265 258 250 250 257 248 212 195 191 190 189 188 188 186 182 176 167 161 166 172 176 178 181 185 185 182 178 179 180 169 161 170 211 325 339 339 333 330 328 325 322 320 315 310 308 306 305 305 302 299 296 292 290 289 290 293 297 300 300 297 291 287 284 279 275 272 271 269 266 261 256 254 250 247 248 250
232 236 241 243 249 254 263 279 294 298 291 270 228 235 267 281 263 213 232 252 241 239 239 239 239 229 226 219 203 197 195 193 191 189 187 180 174 170 169 172 177 179 181 187 195 194 191 192 193 196 196 196 216 284 318 325 326 323 321 320 319 317 315 313 310 307 305 304 304 302 298 296 295 293 291 291 295 297 299 301 300 295 290 287 283 277 271 268 268 267 264 258 252 250 249 247 247
202 223 238 249 268 263 262 269 303 302 276 268 257 256 263 270 261 213 230 263 245 231 228 230 240 228 218 217 211 205 201 197 194 190 185 179 176 177 178 181 183 185 188 193 198 198 195 200 208 212 221 245 269 300 316 317 316 317 316 316 315 314 312 310 308 306 304 303 304 303 302 301 301 299 298 297 298 297 296 297 299 297 293 288 284 280 274 268 266 265 264 261 256 252 251 249 245
250 233 248 273 259 257 260 262 253 252 262 263 258 262 266 269 262 161 188 242 236 226 225 211 211 214 218 218 216 215 208 202 198 193 187 181 182 184 185 188 191 192 195 198 200 199 196 201 214 229 248 275 290 300 308 311 313 311 313 314 310 309 308 307 306 304 304 303 303 303 303 303 303 302 300 298 297 296 295 295 295 296 294 288 283 280 276 271 266 263 261 260 259 255 254 253 248
279 287 303 259 243 240 233 249 258 257 261 265 262 262 262 263 263 235 229 255 259 247 243 236 217 204 216 222 218 216 209 204 201 196 192 187 187 187 187 192 196 196 199 202 200 199 198 201 212 232 251 267 282 293 298 303 309 308 308 310 308 307 307 306 305 303 304 303 301 300 300 300 301 300 298 296 295 294 293 294 293 293 293 290 284 279 276 272 267 263 260 259 258 256 254 253 249
294 293 266 242 254 264 245 240 255 262 263 268 274 268 259 257 258 267 284 291 292 285 279 275 266 231 234 240 227 217 208 205 205 201 198 192 189 187 187 192 198 197 200 202 200 199 199 201 211 232 245 254 264 275 285 293 302 304 304 306 307 308 307 305 304 305 304 301 298 298 297 297 298 297 295 294 292 290 290 291 291 290 290 290 286 280 276 273 268 263 259 258 257 255 254 253 250
265 279 261 248 255 266 263 252 244 253 261 267 276 272 268 273 225 255 299 307 306 307 300 284 287 284 271 267 257 234 212 208 211 209 204 194 188 187 186 192 198 200 200 199 198 198 199 202 214 230 240 248 257 262 272 283 292 297 300 305 308 309 308 307 307 306 303 299 297 296 294 295 296 294 293 292 289 288 287 287 287 287 286 287 286 282 277 272 268 265 261 258 256 255 254 252 250
246 255 255 254 260 259 258 255 247 247 256 261 266 267 276 304 155 265 297 298 281 299 302 295 290 287 285 277 266 253 229 218 216 214 209 196 186 185 186 189 195 199 198 196 196 198 199 205 215 228 237 246 257 263 271 281 287 290 296 305 309 310 310 310 311 308 302 298 296 293 292 294 293 292 292 292 290 290 288 286 284 283 282 283 283 282 279 274 269 266 263 259 256 255 254 252 251
Height
800 801 800 800 798 798 796 793 804 800 798 808 799 799 798 787 788 790 789 787 787 784 779 780 777 778 782 783 784 781 780 783 783 790 797 782 769 773 773 775 777 778 782 784 787 789 791 793 795 797 798 800 801 801 802 803 805 806 808 809 810 810 812 814 815 815 816 816 818 819 820 821 822 823 824 824 825 826 826 826 827 828 829 829 830 830 830 830 830 831 831 832 833 833 833 833 834
800 801 799 800 798 799 796 792 808 805 803 810 797 793 791 785 790 791 788 788 788 783 778 778 775 775 776 776 777 780 779 773 770 774 777 772 771 773 773 776 777 778 782 785 787 790 792 794 795 797 799 800 801 802 803 804 805 807 809 810 811 811 812 815 817 817 817 818 818 820 821 822 823 824 825 826 826 826 827 827 828 829 830 830 830 830 830 830 831 831 832 832 833 834 834 834 834
801 801 800 801 796 795 794 796 808 806 808 811 797 788 786 789 790 787 785 785 784 780 779 777 776 775 776 778 776 781 782 768 766 770 769 771 771 772 775 776 777 780 782 785 787 789 792 793 795 797 799 800 801 803 804 805 806 807 809 811 812 813 813 815 817 818 818 819 820 821 822 823 824 825 826 827 827 827 828 828 829 830 830 831 831 831 831 831 831 831 832 833 834 835 835 835 835
801 801 800 798 796 797 798 802 804 803 808 805 797 788 787 790 786 785 784 783 781 779 780 779 780 773 776 783 775 778 780 767 763 769 769 770 772 772 775 776 778 780 782 785 787 789 792 792 794 797 799 801 802 804 805 806 807 808 810 811 812 813 814 815 817 819 820 820 821 822 823 824 825 826 827 827 828 828 829 829 830 830 831 832 832 832 832 832 832 832 832 833 834 835 836 836 836
800 801 799 797 798 798 798 802 799 801 803 796 793 787 786 787 785 787 783 781 780 780 780 781 783 772 773 777 773 778 774 766 765 769 770 770 774 773 774 777 778 780 782 784 786 789 790 791 793 795 798 800 802 804 806 807 808 809 810 811 812 813 814 816 818 819 821 821 822 823 824 824 825 827 828 828 829 829 830 830 831 831 832 832 832 833 833 833 834 833 833 834 835 835 836 836 837
800 800 798 796 796 794 799 805 801 800 792 786 790 784 783 786 785 787 783 781 778 779 779 781 783 778 778 770 767 770 765 767 769 769 770 770 773 773 774 776 778 780 782 784 786 788 789 790 792 795 797 799 802 804 806 807 808 809 810 812 812 813 815 816 818 819 821 822 823 823 824 825 826 827 828 829 829 830 830 831 831 832 833 833 833 833 834 834 834 834 834 834 835 836 837 837 837
799 798 797 798 796 797 805 805 799 795 784 782 789 784 783 784 783 785 785 783 780 779 779 780 779 783 783 770 769 765 762 770 767 768 770 770 772 773 774 775 778 780 781 784 786 787 789 790 792 795 796 799 801 803 805 807 809 810 811 812 814 815 816 817 818 819 821 823 824 824 825 826 826 827 829 830 830 831 831 832 832 833 833 833 833 834 834 835 835 835 835 835 836 836 837 838 838
798 797 795 800 800 801 806 800 795 790 784 785 787 785 785 784 783 785 786 785 784 781 780 779 776 787 783 770 776 765 763 771 767 770 770 770 772 772 774 774 777 778 780 783 785 787 788 791 793 795 796 799 801 803 805 807 809 810 811 812 814 816 817 818 818 819 821 823 824 825 826 827 827 828 829 830 831 832 832 832 833 833 834 834 834 835 835 835 835 836 835 836 836 837 837 838 839
797 796 796 802 801 801 803 798 794 789 786 788 786 786 785 784 783 785 787 785 783 780 781 778 777 789 782 773 777 764 763 770 768 771 770 771 772 772 773 773 775 776 779 781 784 786 787 790 791 793 794 796 799 802 804 806 808 810 812 812 814 816 818 818 818 820 821 822 824 825 826 827 828 829 830 831 832 833 833 833 833 834 834 835 835 835 835 835 835 836 836 836 837 837 838 838 839
795 796 797 802 802 803 804 797 792 789 788 787 785 785 784 783 783 785 787 785 782 781 779 776 780 785 780 779 777 765 766 769 769 771 770 771 771 772 774 774 776 776 778 780 782 783 785 788 790 792 793 795 796 799 802 805 807 809 811 812 814 816 817 818 819 821 821 822 823 825 827 828 829 830 831 832 833 833 834 834 834 835 835 835 835 836 836 836 836 836 837 837 837 838 838 838 839
797 796 796 803 805 806 803 795 790 789 788 786 786 783 782 781 784 786 785 785 781 782 779 777 782 779 779 781 774 767 768 770 771 771 771 771 772 774 775 776 777 777 777 778 781 782 784 787 790 793 794 796 796 797 800 803 806 808 810 811 814 815 817 818 819 821 822 823 824 825 827 828 830 831 832 833 834 834 834 835 835 836 836 836 836 836 836 836 837 837 838 838 838 838 838 839 839
799 796 798 806 804 799 795 792 791 788 788 788 788 782 779 781 785 787 785 784 781 783 780 778 781 777 783 782 770 766 769 771 771 771 772 772 772 774 775 776 776 776 776 777 780 781 784 787 790 793 795 796 796 797 798 801 805 807 809 811 813 814 816 818 819 820 821 823 824 826 827 829 830 831 833 833 834 834 835 835 836 836 836 837 837 837 837 837 837 838 838 838 839 839 839 839 839
798 794 800 804 796 793 793 794 793 792 792 787 785 779 778 784 786 785 784 784 784 785 780 775 776 778 784 779 767 765 769 772 772 772 772 771 772 773 774 774 774 774 775 776 778 781 784 787 791 793 796 797 797 798 797 798 802 806 808 810 812 814 815 817 819 820 821 822 824 826 828 829 830 831 833 833 834 835 835 836 836 836 837 837 837 837 837 837 838 838 839 839 840 840 840 840 840
794 791 797 800 794 795 795 795 792 795 794 782 780 779 780 785 784 782 784 787 785 781 777 773 775 780 781 777 769 766 770 773 772 773 771 771 771 771 772 772 772 772 774 776 778 781 784 788 791 793 796 798 799 800 799 797 799 804 807 809 812 814 815 816 818 819 820 822 823 826 828 829 831 831 833 834 834 835 835 836 836 836 837 837 837 837 837 837 838 838 839 839 840 840 841 841 840
791 790 796 798 796 797 794 794 792 795 791 780 781 782 784 783 780 783 784 787 783 773 774 773 774 781 780 779 776 769 772 774 772 773 772 772 771 772 772 771 772 772 774 776 779 782 784 787 789 792 794 796 798 800 801 798 797 801 806 808 811 813 815 815 817 819 820 822 823 826 828 829 831 832 833 834 834 835 835 836 836 836 837 837 837 837 838 838 838 838 838 839 840 841 841 841 841
790 790 798 800 799 798 793 791 793 796 789 781 783 784 788 783 779 784 780 782 781 772 775 776 774 779 779 778 776 772 774 774 773 774 773 773 773 774 773 773 774 774 775 776 779 782 782 784 786 789 791 794 796 798 800 799 797 800 805 808 810 812 814 815 817 818 820 822 824 826 828 829 831 831 832 833 834 835 835 836 836 836 837 837 837 838 838 838 838 838 838 839 839 840 841 841 842
790 794 800 801 798 795 791 790 792 793 786 783 785 785 790 786 779 781 776 778 781 776 776 776 774 776 776 775 775 774 775 775 774 775 776 778 779 780 779 777 778 777 779 780 782 783 782 782 784 787 790 793 796 797 798 798 798 799 804 808 810 812 813 816 817 819 820 822 824 826 828 829 830 831 832 833 833 834 835 835 836 836 837 837 838 838 838 838 838 838 839 839 839 840 841 841 842
794 797 801 799 794 789 786 787 786 787 787 785 786 786 789 788 782 778 778 779 778 777 775 774 775 775 775 775 776 776 776 776 777 779 781 784 785 784 783 781 782 783 785 788 790 789 788 788 789 790 791 794 797 799 798 797 797 798 802 807 810 812 813 815 817 819 820 822 824 825 827 828 829 830 831 832 832 833 834 834 835 836 836 837 838 838 838 838 838 838 839 839 839 840 840 841 842
794 794 798 793 786 784 783 784 784 786 788 786 785 786 788 788 784 780 784 782 777 779 775 772 774 775 776 776 777 777 776 777 778 780 781 784 783 781 783 783 784 787 790 792 793 795 794 793 794 795 795 796 798 801 800 797 797 797 800 805 808 811 813 815 816 818 820 822 824 825 826 827 828 830 830 831 832 832 833 833 834 835 835 836 837 838 838 838 838 838 838 839 839 839 840 841 842
790 791 795 788 781 784 784 785 785 785 786 787 785 785 787 785 782 782 785 784 780 780 776 774 775 774 776 777 777 777 776 778 779 780 781 782 782 782 782 784 785 788 792 793 794 796 797 797 797 797 798 798 798 802 802 799 798 797 799 803 807 810 812 814 816 817 819 821 822 823 825 826 827 829 829 830 830 831 831 832 833 834 835 836 837 837 838 838 838 838 838 838 839 839 840 840 841
790 790 790 783 783 787 785 784 785 784 785 787 786 787 787 783 781 783 785 786 782 776 774 777 777 774 776 778 778 777 777 778 779 780 781 782 783 785 785 784 786 789 792 794 795 794 795 801 801 799 799 799 800 803 804 802 801 799 799 803 806 809 811 813 815 816 817 819 821 822 824 825 826 827 828 829 830 830 831 831 832 833 834 834 835 836 836 836 837 837 837 837 838 839 839 840 840
790 789 785 783 786 788 784 783 784 785 785 788 788 788 785 781 782 783 784 788 782 773 773 775 775 774 774 776 777 777 777 778 779 780 781 782 783 785 786 786 788 790 793 795 796 792 792 800 803 801 800 801 803 804 805 806 805 802 801 802 805 809 811 813 815 816 817 819 821 822 824 825 826 827 827 828 829 829 830 830 831 832 833 833 834 835 835 835 836 837 837 837 838 838 838 839 839
791 788 786 785 786 787 783 783 785 786 787 788 787 784 783 783 784 781 783 785 777 772 773 774 773 773 773 774 776 777 778 778 779 780 780 782 784 785 786 787 789 792 793 794 794 792 790 795 800 801 801 802 803 804 806 808 808 806 804 803 805 808 811 814 816 817 818 819 821 823 824 825 825 826 826 826 827 827 828 829 830 831 832 833 833 834 834 834 835 835 835 836 836 837 837 838 838
791 788 787 786 785 786 783 783 785 786 788 786 783 784 785 786 784 781 783 779 773 772 773 774 773 772 772 774 776 779 783 783 781 781 781 782 783 785 786 788 791 792 793 793 792 790 789 793 798 800 800 800 802 804 807 809 810 810 808 807 806 807 810 814 816 818 819 821 822 823 824 824 824 824 824 825 825 826 827 827 829 830 831 832 832 833 833 833 834 834 834 834 835 836 836 837 837
791 787 786 786 786 785 782 783 785 785 786 784 784 787 785 783 784 784 782 776 773 774 774 774 773 773 773 774 779 785 788 790 788 785 783 783 784 785 787 789 791 793 794 794 792 792 793 794 797 799 799 800 801 803 807 809 811 810 809 808 808 809 811 813 816 818 820 822 823 824 824 824 823 823 823 823 823 824 825 826 827 828 829 830 831 832 832 832 833 833 833 833 833 834 835 835 836
788 786 786 786 786 784 783 784 784 784 784 783 786 787 782 781 785 784 778 775 775 774 775 774 773 774 774 776 784 788 789 790 791 789 787 785 785 786 788 790 791 793 795 795 795 796 797 797 797 797 798 800 800 802 806 809 810 810 810 809 810 811 812 813 816 818 820 822 823 823 823 823 822 821 821 821 821 822 822 823 825 826 827 828 829 830 830 831 831 831 832 832 832 832 833 834 834
786 786 786 786 785 783 784 784 782 782 782 782 786 785 781 782 787 783 775 775 776 775 776 775 774 775 776 779 785 787 788 789 790 791 791 789 788 788 789 791 792 795 796 797 796 797 798 798 797 797 798 799 800 804 807 809 810 811 811 812 812 811 812 813 816 818 820 821 822 823 823 822 823 822 820 820 819 820 821 821 823 824 824 825 826 827 828 829 829 830 830 831 831 831 831 832 833
786 788 788 786 785 784 784 783 782 782 782 782 783 784 782 784 786 781 775 776 777 776 777 776 776 776 778 782 785 785 786 789 789 791 793 791 790 790 790 791 793 796 798 798 797 797 798 798 797 797 798 799 801 806 809 810 811 811 812 814 813 811 812 813 816 818 820 821 822 823 822 822 823 824 821 819 818 819 819 820 821 822 823 823 824 825 826 826 827 828 828 829 830 830 830 830 831
788 789 789 786 785 786 784 782 781 782 783 781 782 786 785 784 782 777 776 777 776 777 777 777 777 777 779 781 783 784 785 786 789 791 791 792 793 792 792 793 794 797 799 799 798 798 799 800 798 796 796 798 801 805 808 810 812 812 813 814 813 811 812 814 816 818 819 820 820 821 822 822 824 826 823 820 818 818 818 818 819 820 821 822 822 823 824 824 825 825 826 827 828 828 829 829 830
789 787 787 786 786 786 781 781 782 782 784 780 783 789 783 778 777 775 778 778 777 778 777 777 777 778 779 781 783 785 786 787 789 790 790 792 794 794 794 795 796 798 799 799 799 799 800 801 801 798 795 796 801 804 806 810 812 813 814 814 814 813 813 814 816 817 818 817 816 817 819 820 823 825 824 821 818 817 817 817 817 818 819 820 820 821 822 822 823 823 824 825 825 826 826 827 828
788 788 788 785 786 785 779 781 782 782 784 779 785 789 778 773 775 775 778 777 777 777 777 778 778 779 781 782 785 786 788 790 791 791 791 791 793 794 796 798 798 797 798 799 800 800 800 801 802 801 797 796 800 803 804 808 811 813 815 815 814 814 814 814 814 816 816 814 813 814 815 816 818 820 821 821 819 818 817 817 817 817 817 818 818 819 820 820 821 821 822 822 823 823 824 824 825
786 792 792 785 783 782 780 781 780 782 782 778 785 787 776 772 774 774 776 777 777 778 779 781 780 781 782 783 786 787 790 792 792 793 792 793 793 794 797 800 800 799 798 800 801 801 801 801 801 803 801 799 800 802 803 805 808 811 813 813 813 813 812 812 813 813 813 812 812 812 812 813 814 815 816 818 820 819 818 817 816 816 816 816 817 817 818 818 818 819 819 820 820 821 821 822 822
786 789 789 785 783 781 781 781 778 780 781 778 782 784 776 772 773 774 776 776 778 780 781 782 782 782 782 784 786 788 791 792 793 794 794 794 793 794 798 801 801 800 800 800 801 801 801 802 802 803 804 802 801 803 805 805 807 809 810 812 812 811 811 811 811 811 810 810 810 810 810 811 812 813 813 815 816 817 817 816 815 816 816 815 815 815 815 815 816 816 816 817 818 818 819 819 820
788 786 784 784 783 782 782 781 778 778 780 780 780 781 778 773 773 775 777 778 778 780 781 782 783 783 783 785 787 789 791 793 795 796 797 797 795 796 800 802 802 801 801 801 801 802 802 802 802 803 804 804 804 804 805 807 807 808 809 810 810 810 810 809 809 809 809 810 810 810 809 810 811 812 812 812 812 812 814 814 814 815 816 815 814 813 813 813 814 814 813 814 814 815 815 816 816
786 787 786 786 785 785 783 780 779 779 780 780 779 781 777 773 772 775 778 779 779 779 781 782 782 784 784 785 788 790 792 794 797 798 799 799 798 799 801 802 803 803 803 802 802 804 804 803 803 804 805 806 806 806 806 807 807 808 808 809 809 809 809 808 809 808 809 809 809 809 809 810 811 811 811 811 810 810 810 811 812 814 815 814 813 812 811 811 811 811 811 811 811 812 812 813 813
783 784 784 785 785 784 780 778 778 779 783 780 778 778 776 774 773 774 779 780 780 781 781 782 782 783 785 786 788 790 793 796 799 800 800 800 801 801 802 803 804 805 805 805 805 806 805 805 805 806 807 807 808 808 808 808 808 809 808 808 808 807 807 807 807 808 808 808 808 808 808 809 810 810 810 809 809 809 809 809 810 812 815 814 812 810 809 809 810 809 809 809 809 809 810 810 811
784 785 785 785 785 783 777 778 779 779 785 780 775 777 776 775 773 772 778 779 780 781 782 782 781 783 786 787 790 792 795 798 800 801 801 802 803 803 804 805 806 807 807 807 807 808 807 807 807 808 809 809 809 809 809 809 809 809 809 808 808 807 807 806 806 807 807 807 808 807 807 807 808 809 809 808 808 808 808 808 809 811 812 812 811 809 808 808 808 807 806 806 806 806 807 807 808
786 786 786 785 785 782 775 778 779 778 785 780 773 779 778 774 773 772 776 779 779 779 781 783 782 784 786 787 791 793 796 798 800 802 802 803 804 804 805 806 807 808 808 809 809 809 809 809 810 810 811 811 811 810 810 810 809 809 809 809 808 808 807 807 806 806 806 807 807 807 807 806 807 807 807 807 806 806 806 807 807 808 807 808 808 808 807 807 807 806 804 804 803 803 803 803 804
787 784 786 786 780 779 777 776 777 779 784 779 773 780 776 769 771 772 774 776 777 778 779 781 782 785 787 788 792 793 795 798 799 801 802 803 804 805 806 807 808 808 809 810 810 811 811 811 812 812 813 812 812 812 811 810 810 809 809 808 808 807 807 806 806 806 805 805 805 806 806 806 806 806 805 805 805 805 805 805 805 805 804 804 803 804 805 805 804 803 803 802 801 800 799 800 801
786 782 786 784 776 784 784 775 777 780 781 778 775 779 774 767 770 772 773 774 776 779 780 780 782 785 787 787 790 792 794 796 798 800 801 802 804 804 806 807 808 810 811 811 812 812 812 813 814 814 814 813 813 812 812 811 810 809 808 807 807 806 806 806 805 805 804 804 803 804 804 805 805 805 804 804 803 803 803 803 803 803 803 802 802 802 803 804 803 801 801 800 799 798 796 796 797
783 780 784 781 774 783 784 776 780 780 778 778 779 784 776 766 770 770 770 775 776 779 780 781 783 783 786 788 789 791 792 794 796 798 800 801 803 804 806 808 809 810 811 811 812 813 813 814 815 815 815 814 814 813 812 812 811 810 809 807 806 806 805 805 804 803 802 802 801 801 802 802 803 803 803 803 802 802 802 801 801 801 801 801 801 800 801 802 801 800 799 798 797 796 794 795 795
780 777 778 778 775 779 781 779 784 786 784 777 780 795 784 763 767 769 768 775 775 776 779 780 782 783 786 789 789 790 792 793 795 796 798 800 802 804 806 807 809 809 810 811 812 813 814 815 815 815 815 815 814 814 813 812 812 811 810 809 807 806 805 804 803 802 801 800 799 799 799 799 799 800 801 801 801 800 800 800 799 798 798 798 798 797 796 797 797 797 797 795 795 794 793 794 793
780 770 770 775 776 780 782 781 786 791 785 775 778 796 790 770 767 766 765 771 771 773 777 777 778 781 783 786 788 790 791 792 794 795 797 799 801 804 805 806 808 809 810 812 813 814 814 815 815 815 815 814 814 814 813 813 812 812 811 810 809 808 806 804 803 802 800 799 798 797 796 796 796 797 797 798 798 798 798 797 796 795 794 794 794 793 792 792 792 793 793 793 793 792 792 793 792
779 768 769 775 777 780 782 780 785 782 775 774 775 784 792 783 769 761 763 770 769 771 775 774 775 778 779 782 785 787 789 791 793 795 796 798 801 802 803 805 807 809 810 811 813 813 813 814 814 814 814 814 814 814 813 813 813 812 811 811 810 809 807 805 803 801 800 798 797 796 795 794 793 793 794 794 795 795 795 794 793 792 791 790 789 789 788 787 788 788 789 791 792 791 790 791 790
776 771 773 775 776 779 778 778 780 775 777 786 777 776 794 789 765 759 767 771 770 769 769 770 771 774 777 779 783 785 787 789 791 793 796 797 800 801 803 805 807 808 809 810 811 812 812 812 813 813 813 813 813 813 813 812 812 812 811 811 810 809 807 805 803 801 799 797 795 794 793 792 791 791 791 791 791 792 791 791 790 789 788 786 785 784 784 784 784 785 785 786 789 789 787 786 786
773 773 776 775 778 779 779 781 779 778 789 796 781 775 791 788 764 761 771 773 769 766 763 763 766 770 775 777 781 783 785 787 789 791 794 797 799 801 803 804 805 805 807 809 810 810 811 811 812 813 812 813 813 812 812 812 812 811 811 811 810 809 808 806 804 802 800 798 795 793 791 790 790 789 789 788 788 788 787 787 786 785 785 783 782 781 780 780 780 780 781 782 785 786 784 783 783
774 776 777 779 781 779 782 782 781 791 798 790 776 771 785 791 771 759 767 769 764 761 760 760 762 766 772 776 779 781 782 785 787 789 793 796 798 801 802 802 802 804 806 808 809 810 811 811 812 812 812 813 813 812 812 811 811 811 810 810 809 809 808 806 805 803 801 799 796 794 792 790 789 788 787 786 786 785 784 783 783 782 782 781 780 779 777 777 776 776 777 779 781 782 781 780 780
776 776 777 783 787 786 790 787 790 807 802 780 773 772 783 793 775 758 759 759 759 761 760 760 761 764 770 773 776 778 780 783 785 788 791 794 797 799 799 799 800 804 806 807 808 809 810 811 811 812 812 812 812 812 812 811 810 810 809 809 808 807 807 805 804 803 801 799 797 795 793 791 789 787 786 785 784 783 781 780 780 779 779 778 777 776 775 774 774 773 774 775 776 777 777 776 777
778 777 780 792 797 799 804 799 798 804 790 773 775 780 786 785 767 755 755 754 755 758 758 760 761 763 766 770 773 775 777 780 782 785 788 791 794 795 796 797 800 803 805 806 808 808 809 810 810 811 811 812 812 812 811 810 810 809 808 808 807 806 805 804 803 801 800 799 797 796 794 792 790 788 787 785 783 782 780 779 777 777 776 775 775 774 773 772 772 771 771 771 771 772 772 773 773
779 778 782 795 801 807 813 805 798 794 782 772 776 785 788 777 760 752 753 755 756 757 758 760 762 763 764 766 770 773 774 777 779 782 785 788 790 792 793 796 799 802 804 805 806 807 808 809 809 810 810 811 811 811 811 810 809 809 808 807 806 805 804 803 801 800 798 797 796 795 793 792 790 789 787 785 783 781 779 777 776 775 774 773 772 771 770 769 769 769 768 768 767 768 768 769 769
774 769 774 787 791 800 808 802 797 794 784 778 782 789 785 774 765 757 754 757 757 758 759 760 763 765 764 764 767 771 773 775 777 779 782 784 786 789 792 795 798 800 802 804 805 806 807 808 808 809 809 810 810 810 810 809 809 808 807 806 805 804 802 801 799 798 797 796 794 793 791 790 789 787 786 784 782 780 778 776 774 772 771 770 769 768 768 767 766 766 765 765 764 764 765 765 766
773 767 775 784 779 784 795 796 795 796 793 788 784 782 770 759 757 753 753 757 755 758 759 759 763 763 764 766 766 769 772 772 774 777 779 782 785 787 790 794 797 799 801 802 804 805 806 807 807 808 809 809 809 809 809 808 808 807 806 805 804 802 801 799 798 796 795 794 792 791 789 788 786 785 783 782 781 779 777 775 773 770 769 768 767 766 765 764 764 763 762 761 761 761 761 761 762
780 779 782 778 769 775 791 799 797 800 804 792 779 774 763 755 754 752 755 757 754 756 758 758 761 762 764 766 766 767 769 770 772 774 777 780 783 786 789 792 795 797 799 801 802 804 804 805 806 807 807 807 807 807 807 807 806 806 805 804 803 801 800 798 796 795 793 792 791 789 788 786 784 783 781 780 778 777 775 773 771 769 767 766 765 764 763 762 762 761 760 759 758 758 757 756 757
782 787 780 773 773 776 787 801 802 801 803 788 773 775 771 766 764 756 756 759 755 754 755 757 760 762 763 764 765 766 766 768 770 772 775 778 781 785 788 791 793 795 798 799 801 803 803 805 805 806 806 806 806 806 805 805 805 804 804 803 802 800 799 797 795 793 792 790 789 788 786 785 783 781 779 778 776 774 772 771 769 767 766 764 763 762 761 760 759 758 757 756 755 754 754 753 753
778 781 774 779 793 792 791 803 805 801 802 790 776 771 769 767 763 754 754 758 756 754 754 756 757 758 761 761 762 764 764 767 769 770 773 775 778 783 786 789 792 794 796 798 800 801 802 804 804 805 805 805 805 804 804 804 803 803 802 801 800 799 798 796 794 793 791 789 787 786 785 783 782 780 778 776 774 772 770 769 767 766 764 762 761 760 759 758 757 756 754 753 752 751 750 750 750
778 778 775 778 788 791 792 799 801 801 801 794 783 774 766 760 754 752 755 755 755 756 756 756 755 755 758 759 760 762 763 766 766 767 770 772 776 780 784 787 789 792 795 796 798 800 801 802 803 804 805 804 804 804 803 803 802 802 801 800 799 797 796 795 793 792 790 788 786 784 783 782 780 778 776 774 772 770 768 766 765 763 762 761 759 758 757 756 755 753 752 750 749 748 747 746 746
790 791 787 784 782 783 787 788 786 793 798 795 792 784 766 750 746 750 753 752 754 756 756 756 756 755 756 757 758 759 761 763 764 765 766 770 774 778 781 785 788 790 793 794 797 798 799 801 802 803 803 803 803 803 803 802 801 801 800 798 797 796 794 793 792 790 789 787 785 783 782 779 777 776 774 772 770 768 766 764 762 761 760 759 758 756 755 754 753 751 749 748 747 745 744 743 743
792 793 791 791 788 787 795 795 779 777 785 786 789 788 767 746 745 750 750 751 753 754 755 756 756 755 756 756 757 758 759 761 763 764 765 768 772 775 779 783 786 788 790 792 794 796 797 799 800 801 802 802 802 802 801 801 800 800 799 797 796 794 793 791 789 788 786 785 783 782 780 778 775 773 771 770 768 766 764 762 760 759 758 757 756 755 753 752 750 749 747 746 744 742 741 740 739